www.pogodaiklimat.ru

Погода и климат >> Архив погоды >> Сенегал >> Cap-Skirring


ПОГОДА в Cap-Skirring

  • Прогноз погоды в Cap-Skirring
  • Монитор погоды в Cap-Skirring
  • Климат города

АРХИВ ПОГОДЫ в Cap-Skirring

Время (UTC), дата Ветер
(напр.,м/с)
 
Видим.   Явления Облачность Т
(С)
Тd
(С)
f
(%)
Тe
(С)
Тes
(С)
Комфортность P
(гПа)
Po
(гПа)
Тmin
(С)
Tmax
(С)
R
(мм)
R24
(мм)
S
(см)
03 14.06 В 2 10 км {дождь} 10/0
[Ac As]
+23.4 +21.9 91 +32 +32 очень
душно
1017.2 1015.8
06 14.06 СЗ 2 10 км в посл. час дождь 10/0
[Ac As]
+23.9 +22.9 94 +32 +32 очень
душно
1013.2 1011.8 +23.1 3
09 14.06 В 2 10 км 6/0
[Ac As Ci sp]
+27.6 +23.0 76 +30 +34 жарко 1015.1 1013.7
12 14.06 ЮЗ 1 10 км 9/0
[Ac As]
+29.1 +22.1 66 +38 +46 очень
душно
1015.4 1014.0
15 14.06 Ю 2 10 км 4/3 400 м
[Sc Ac As]
+30.0 +20.4 56 +37 +47 очень
душно
1014.4 1013.0
18 14.06 З 2 10 км 6/0
[Ac As Ci sp]
+27.0 +23.4 81 +37 +38 очень
душно
1013.5 1012.1 +27.0
21 14.06 З 3 10 км 8/0
[Ac As]
+27.5 +24.2 82 +38 +38 очень
душно
1012.3 1010.9
00 15.06 СЗ 2 10 км 6/0
[Ac As]
+27.0 +24.9 88 +39 +39 очень
душно
1013.8 1012.4
06 15.06 С 1 10 км 9/0
[Ac As]
+26.0 +24.6 92 +37 +37 очень
душно
1013.3 1011.9 +25.5
09 15.06 ЮЗ 1 10 км 6/6 400 м
[Sc Ac As]
+28.0 +25.0 84 +40 +43 очень
душно
1014.8 1013.3
12 15.06 З 3 10 км 5/3 450 м
[Cu hum Ac As]
+30.0 +24.6 73 +43 +52 опасность
перегрева
1015.5 1014.0
15 15.06 З 4 10 км 5/1 400 м
[Sc Ac As]
+31.5 +28.1 82 +52 +59 опасность
перегрева
1014.0 1012.5
18 15.06 СЗ 3 10 км 8/1 450 м
[Cu med, cong Ac As]
+28.7 +24.6 79 +41 +42 опасность
перегрева
1013.3 1011.8 +31.6
21 15.06 СЗ 2 10 км гроза без осадков 6/3 900 м
[Cb cap Ac As Ci sp]
+27.0 +24.4 86 +38 +38 очень
душно
1014.8 1013.4
00 16.06 С 1 10 км гроза без осадков 4/1 900 м
[Cb cap Ac As]
+26.8 +23.2 81 +36 +36 очень
душно
1016.3 1014.8
03 16.06 З 2 10 км в посл. час гроза ясно +26.5 +23.9 86 +37 +37 очень
душно
1013.8 1012.4
06 16.06 С 1 10 км 8/0
[Ac As]
+26.5 +23.6 84 +36 +36 очень
душно
1014.4 1012.9 +25.0
09 16.06 СЗ 2 10 км 10/0
[Ac As]
+27.0 +24.1 84 +37 +39 очень
душно
1015.6 1014.2
12 16.06 СЗ 3 10 км 9/3 400 м
[Sc Ac As]
+29.9 +24.1 71 +41 +46 опасность
перегрева
1016.1 1014.7
15 16.06 З 3 10 км 4/1 450 м
[Cu Sc Ac trans]
+32.0 +23.6 61 +43 +53 опасность
перегрева
1014.9 1013.5
18 16.06 СЗ 4 10 км ясно +30.5 +23.8 67 +42 +43 опасность
перегрева
1014.0 1012.6 +32.5
21 16.06 СЗ 2 10 км 5/4 400 м
[Sc Ci sp]
+26.6 +23.4 83 +36 +36 очень
душно
1015.8 1014.4
00 17.06 СЗ 4 10 км ясно +26.0 +23.1 84 +35 +35 очень
душно
1016.5 1015.1
03 17.06 СЗ 2 10 км ясно +25.6 +21.7 79 +33 +33 очень
душно
1015.2 1013.8
06 17.06 СЗ 3 10 км 3/0
[Ci sp]
+25.3 +21.7 80 +32 +32 очень
душно
1015.1 1013.7 +25.0
09 17.06 С 2 10 км 6/3 400 м
[Sc As trans Cs]
+27.5 +21.7 71 +35 +39 очень
душно
1016.0 1014.6
12 17.06 С 3 10 км ясно +30.0 +17.5 47 +34 +52 опасность
солнечного
удара
1016.5 1015.1
15 17.06 СЗ 3 10 км 5/0
[Ci sp]
+30.0 +17.5 47 +34 +48 очень
душно
1014.7 1013.3
18 17.06 З 3 10 км 8/0
[Ci sp]
+28.0 +21.2 67 +35 +37 очень
душно
1014.8 1013.4 +30.6
21 17.06 СЗ 2 10 км 4/4 400 м
[Sc]
+25.5 +21.2 77 +32 +32 очень
душно
1016.0 1014.6
00 18.06 З 2 10 км 5/5 400 м
[Sc]
+25.5 +21.5 79 +33 +33 очень
душно
1015.6 1015.4
03 18.06 СЗ 2 10 км 5/5 300 м
[St]
+25.0 +22.0 83 +32 +32 очень
душно
1016.2 1014.8
06 18.06 СЗ 1 10 км 4/4 300 м
[St]
+25.0 +22.0 83 +32 +32 очень
душно
1017.1 1015.7 +24.5
09 18.06 СЗ 3 10 км 10/5 400 м
[Sc Ac As]
+26.0 +21.4 76 +33 +34 очень
душно
1017.2 1015.7
12 18.06 СЗ 3 10 км 9/6 450 м
[Cu med, cong Ac As]
+28.0 +21.6 68 +36 +39 очень
душно
1017.3 1015.8
15 18.06 С 4 10 км 9/5 450 м
[Cu med, cong Ac As]
+28.0 +21.2 67 +35 +38 очень
душно
1015.8 1014.3
18 18.06 С 3 10 км 8/4 400 м
[Sc Ac As]
+26.5 +21.3 73 +34 +34 очень
душно
1015.4 1013.9 +28.6
21 18.06 СЗ 1 10 км 8/3 400 м
[Sc Ac As]
+25.0 +21.3 80 +32 +32 очень
душно
1016.2 1014.7
00 19.06 С 1 10 км 9/3 400 м
[Sc Ac As]
+24.7 +21.4 82 +31 +31 очень
душно
1016.6 1015.2
03 19.06 С 2 10 км 8/4 400 м
[Sc Ac As]
+24.5 +21.5 83 +31 +31 очень
душно
1015.3 1013.8
06 19.06 С 2 10 км 8/0
[Ac As]
+24.2 +21.7 86 +31 +31 очень
душно
1015.4 1014.0 +24.5
09 19.06 СЗ 1 10 км 9/4 400 м
[Sc Ac As]
+26.9 +21.4 72 +34 +36 очень
душно
1016.0 1014.6
12 19.06 З 2 10 км 6/3 400 м
[Sc Ac As]
+28.5 +21.8 67 +30 +40 жарко 1016.0 1014.6
15 19.06 З 3 10 км 8/0
[Ci sp]
+29.1 +22.1 66 +38 +49 очень
душно
1014.3 1012.9
18 19.06 СЗ 2 10 км 8/3 400 м
[Sc Ci sp]
+27.4 +21.8 72 +35 +37 очень
душно
1012.7 1011.3 +29.1
21 19.06 СЗ 2 10 км 8/0
[Ci sp]
+25.0 +21.9 83 +32 +32 очень
душно
1013.2 1011.8
00 20.06 С 1 10 км 9/0
[Ac As]
+24.9 +22.1 84 +32 +32 очень
душно
1014.2 1012.8
03 20.06 С 1 10 км 9/0
[Ac As]
+24.9 +22.1 84 +32 +32 очень
душно
1014.2 1012.8
06 20.06 С 1 10 км 5/0
[Ci sp]
+22.6 +21.5 94 +30 +30 очень
душно
1013.7 1012.3 +22.4
09 20.06 З 2 10 км 5/4 400 м
[Sc]
+26.3 +22.2 78 +34 +37 очень
душно
1014.5 1013.1
12 20.06 ЮЗ 3 10 км 5/5 400 м
[Sc]
+29.0 +22.6 68 +38 +46 очень
душно
1015.0 1013.6
15 20.06 ЮЗ 3 10 км 5/5 400 м
[Sc]
+30.0 +21.1 59 +38 +45 очень
душно
1013.4 1012.0
18 20.06 З 4 10 км 5/5 400 м
[Sc]
+28.5 +22.7 71 +38 +39 очень
душно
1013.6 1011.2 +30.5
21 20.06 СЗ 2 10 км 4/4 400 м
[Sc]
+26.6 +22.8 80 +35 +35 очень
душно
1015.8 1014.4
00 21.06 З 2 10 км 4/4 400 м
[Sc]
+26.0 +22.3 80 +34 +34 очень
душно
1016.0 1014.6

 

Местоположение метеостанции Cap-Skirring (Сенегал): широта 12.40 долгота -16.75 высота над уровнем моря 13 м.

В архиве по умолчанию представлена погода в Cap-Skirring за последнюю неделю. Архивные данные за месяц целиком и за предыдущие месяцы, начиная с января 2011 года, Вы можете получить, выбрав интересующий диапазон дат из раскрывающегося списка и нажав кнопку "Ввод!".


*Определитесь, кто Вы:
робот инопланетянин человек

Внимание! Время в таблицах - всемирное. Для получения местного времени необходимо прибавить поправку, которая в Cap-Skirring равна 0 ч.

Смотрите также архив погоды в соседних городах и на ближайших метеорологических станциях:

Погода в Ziguinchor (Сенегал) (56 км)
Погода в Banjil Int Airport (Гамбия) (105 км)
Погода в Sibanor (Гамбия) (109 км)
Погода в Banjul Half-Die (Гамбия) (121 км)
Погода в Bissau (Гвинея-Биссау) (132 км)
Погода в Kerewan (Гамбия) (141 км)
Погода в Sapu (Гамбия) (158 км)
Погода в Bolama (Гвинея-Биссау) (166 км)
Погода в Jenoi (Гамбия) (175 км)
Погода в Kolda (Сенегал) (201 км)

Пояснения к столбцам:

Ветер - указаны скорость ветра в м/с - средняя за 10 мин, порывы в срок и между сроками (в фигурных скобках) и направление, откуда дует ветер: С - северный, СВ - северо-восточный, В - восточный, ЮВ - юго-восточный, Ю - южный, ЮЗ - юго-западный, З - западный, СЗ - северо-западный.
Видимость - горизонтальная дальность видимости в метрах или километрах. При видимости от 1 до 10 км при отсутствии осадков обычно наблюдается дымка, при ухудшении видимости до 1 км и менее - туман. В сухую погоду видимость может ухудшаться дымом, пылью или мглою.
Явления - указаны атмосферные явления, наблюдавшиеся в срок или в последний час перед сроком; фигурными скобками обозначены явления, наблюдавшиеся между сроками (за 1-3 часа до срока); квадратными скобками обозначены град или гололедные отложения с указанием их диаметра в мм.
Облачность - указаны через наклонную черту общая и нижняя облачность в баллах и высота нижней границы облаков в метрах; квадратными скобками обозначены формы облаков: Ci - перистые, Cs - перисто-слоистые, Cc - перисто-кучевые, Ac - высококучевые, As - высокослоистые, Sc - слоисто-кучевые, Ns - слоисто-дождевые, Cu - кучевые, Cb - кучево-дождевые. Подробнее классификацию облаков см. в Атласе облаков (PDF).
T - Температура воздуха - температура, измеренная на высоте 2 м над землей.
Td - Температура точки росы - температура, при понижении до которой содержащийся в воздухе водяной пар достигнет насыщения.
f - Относительная влажность воздуха - влажноcть воздуха, измеренная на высоте 2 м над землей.
Te - Эффективная температура - температура, которую ощущает одетый по сезону человек в тени. Характеристика душности погоды. При расчете учитывается влияние влажности воздуха и скорости ветра на теплоощущения человека.
Tes - Эффективная температура на солнце - температура, которую ощущает человек, с поправкой на солнечный нагрев. Характеристика знойности погоды. Зависит от высоты солнца над горизонтом, облачности и скорости ветра. Ночью, в пасмурную погоду, а также при ветре 12 м/с и более поправка равна нулю.
P - Атмосферное давление - приведенное к уровню моря атмосферное давление.
Po - Атмосферное давление - измеренное на уровне метеостанции атмосферное давление.
Tmin - Минимальная температура - минимум температуры воздуха на высоте 2 м над землей.
Tmax - Максимальная температура - максимум температуры воздуха на высоте 2 м над землей.
R - Количество осадков - Количество выпавших осадков за период времени, мм. При наведении курсора мыши на число - период времени, за который выпало указанное количество осадков.
R24 - Количество осадков - Количество выпавших осадков за 24 часа, мм.
S - Снежный покров - Высота снежного покрова, см. При наведении курсора мыши на число - состояние снежного покрова и степень покрытия местности в баллах.